Time,TemperatureF,DewpointF,PressureIn,WindDirection,WindDirectionDegrees,WindSpeedMPH,WindSpeedGustMPH,Humidity,HourlyPrecipIn,Conditions,Clouds,dailyrainin,SoftwareType,DateUTC
2013-03-20 00:00:00,21.4,20.2,29.72,NNE,22,0.0,0.0,95,0.00,,,0.00,Wunderground v.1.15,2013-03-20 04:00:00,
2013-03-20 00:05:00,21.4,20.2,29.72,NNE,23,0.0,0.0,95,0.00,,,0.00,Wunderground v.1.15,2013-03-20 04:05:00,
2013-03-20 00:10:00,21.4,20.2,29.71,NNE,24,0.0,2.0,95,0.00,,,0.00,Wunderground v.1.15,2013-03-20 04:10:00,
2013-03-20 00:20:00,21.5,20.3,29.71,NNE,24,0.0,0.0,95,0.00,,,0.00,Wunderground v.1.15,2013-03-20 04:20:00,
2013-03-20 00:25:00,21.5,20.3,29.71,NNE,24,0.0,0.0,95,0.00,,,0.00,Wunderground v.1.15,2013-03-20 04:25:00,
2013-03-20 00:30:00,21.5,20.3,29.71,NNE,24,0.0,0.0,95,0.00,,,0.00,Wunderground v.1.15,2013-03-20 04:30:00,
2013-03-20 00:35:00,21.5,20.3,29.71,NNE,24,0.0,0.0,95,0.00,,,0.00,Wunderground v.1.15,2013-03-20 04:35:00,
2013-03-20 00:40:00,21.5,20.3,29.70,NNE,24,0.0,0.0,95,0.00,,,0.00,Wunderground v.1.15,2013-03-20 04:40:00,
2013-03-20 00:45:00,21.5,20.3,29.70,NNE,24,0.0,0.0,95,0.00,,,0.00,Wunderground v.1.15,2013-03-20 04:45:00,
2013-03-20 00:55:00,21.5,20.3,29.70,NNE,24,0.0,0.0,95,0.00,,,0.00,Wunderground v.1.15,2013-03-20 04:55:00,
2013-03-20 01:00:00,21.6,20.4,29.70,NNE,24,0.0,0.0,95,0.00,,,0.00,Wunderground v.1.15,2013-03-20 05:00:00,
2013-03-20 01:05:00,21.6,20.4,29.70,NNE,24,0.0,0.0,95,0.00,,,0.00,Wunderground v.1.15,2013-03-20 05:05:00,
2013-03-20 01:15:00,21.6,20.4,29.70,NNE,24,0.0,0.0,95,0.00,,,0.00,Wunderground v.1.15,2013-03-20 05:15:00,
2013-03-20 01:20:00,21.6,20.4,29.69,NNE,24,0.0,0.0,95,0.00,,,0.00,Wunderground v.1.15,2013-03-20 05:20:00,
2013-03-20 01:25:00,21.6,20.4,29.69,NNE,24,0.0,0.0,95,0.00,,,0.00,Wunderground v.1.15,2013-03-20 05:25:00,
2013-03-20 01:35:00,21.5,20.3,29.69,NNE,24,0.0,0.0,95,0.00,,,0.00,Wunderground v.1.15,2013-03-20 05:35:00,
2013-03-20 01:45:00,21.3,20.1,29.70,NNE,24,0.0,0.0,95,0.00,,,0.00,Wunderground v.1.15,2013-03-20 05:45:00,
2013-03-20 01:50:00,21.3,20.1,29.70,NNE,24,0.0,0.0,95,0.00,,,0.00,Wunderground v.1.15,2013-03-20 05:50:00,
2013-03-20 01:55:00,21.3,20.1,29.70,NNE,24,0.0,0.0,95,0.00,,,0.00,Wunderground v.1.15,2013-03-20 05:55:00,
2013-03-20 02:05:00,21.4,20.2,29.69,NNE,24,0.0,0.0,95,0.00,,,0.00,Wunderground v.1.15,2013-03-20 06:05:00,
2013-03-20 02:10:00,21.4,20.2,29.69,NNE,24,0.0,0.0,95,0.00,,,0.00,Wunderground v.1.15,2013-03-20 06:10:00,
2013-03-20 02:15:00,21.4,20.2,29.68,NNE,24,0.0,0.0,95,0.00,,,0.00,Wunderground v.1.15,2013-03-20 06:15:00,
2013-03-20 02:25:00,21.5,20.3,29.68,NNE,24,0.0,0.0,95,0.00,,,0.00,Wunderground v.1.15,2013-03-20 06:25:00,
2013-03-20 02:35:00,21.6,20.4,29.67,NNE,24,0.0,0.0,95,0.00,,,0.00,Wunderground v.1.15,2013-03-20 06:35:00,
2013-03-20 02:40:00,21.6,20.4,29.67,NNE,24,0.0,0.0,95,0.00,,,0.00,Wunderground v.1.15,2013-03-20 06:40:00,
2013-03-20 02:50:00,21.7,20.5,29.67,NNE,24,0.0,0.0,95,0.00,,,0.00,Wunderground v.1.15,2013-03-20 06:50:00,
2013-03-20 02:55:00,21.7,20.5,29.67,NNE,24,0.0,0.0,95,0.00,,,0.00,Wunderground v.1.15,2013-03-20 06:55:00,
2013-03-20 03:00:00,21.7,20.5,29.67,NNE,24,0.0,0.0,95,0.00,,,0.00,Wunderground v.1.15,2013-03-20 07:00:00,
2013-03-20 03:05:00,21.7,20.5,29.67,NNE,24,0.0,0.0,95,0.00,,,0.00,Wunderground v.1.15,2013-03-20 07:05:00,
2013-03-20 03:15:00,21.5,20.3,29.67,NNE,24,0.0,0.0,95,0.00,,,0.00,Wunderground v.1.15,2013-03-20 07:15:00,
2013-03-20 03:20:00,21.4,20.2,29.67,NNE,24,0.0,0.0,95,0.00,,,0.00,Wunderground v.1.15,2013-03-20 07:20:00,
2013-03-20 03:30:00,21.4,20.2,29.67,NNE,24,0.0,0.0,95,0.00,,,0.00,Wunderground v.1.15,2013-03-20 07:30:00,
2013-03-20 03:35:00,21.4,20.2,29.67,NNE,24,0.0,0.0,95,0.00,,,0.00,Wunderground v.1.15,2013-03-20 07:35:00,
2013-03-20 03:40:00,21.4,20.2,29.67,NNE,24,0.0,0.0,95,0.00,,,0.00,Wunderground v.1.15,2013-03-20 07:40:00,
2013-03-20 03:45:00,21.3,20.1,29.66,NNE,24,0.0,0.0,95,0.00,,,0.00,Wunderground v.1.15,2013-03-20 07:45:00,
2013-03-20 03:55:00,21.3,20.1,29.66,NNE,24,0.0,0.0,95,0.00,,,0.00,Wunderground v.1.15,2013-03-20 07:55:00,
2013-03-20 04:05:00,21.3,20.1,29.66,NNE,24,0.0,0.0,95,0.00,,,0.00,Wunderground v.1.15,2013-03-20 08:05:00,
2013-03-20 04:10:00,21.3,20.3,29.66,NNE,24,0.0,0.0,96,0.00,,,0.00,Wunderground v.1.15,2013-03-20 08:10:00,
2013-03-20 04:15:00,21.4,20.4,29.66,NNE,24,0.0,0.0,96,0.00,,,0.00,Wunderground v.1.15,2013-03-20 08:15:00,
2013-03-20 04:25:00,21.5,20.5,29.66,NNE,24,0.0,0.0,96,0.00,,,0.00,Wunderground v.1.15,2013-03-20 08:25:00,
2013-03-20 04:30:00,21.6,20.4,29.66,NNE,24,0.0,0.0,95,0.00,,,0.00,Wunderground v.1.15,2013-03-20 08:30:00,
2013-03-20 04:35:00,21.6,20.4,29.66,NNE,24,0.0,0.0,95,0.00,,,0.00,Wunderground v.1.15,2013-03-20 08:35:00,
2013-03-20 04:45:00,21.7,20.5,29.66,NNE,24,0.0,0.0,95,0.00,,,0.00,Wunderground v.1.15,2013-03-20 08:45:00,
2013-03-20 04:50:00,21.8,20.6,29.66,NNE,24,0.0,0.0,95,0.00,,,0.00,Wunderground v.1.15,2013-03-20 08:50:00,
2013-03-20 04:55:00,21.8,20.6,29.66,NNE,24,0.0,0.0,95,0.00,,,0.00,Wunderground v.1.15,2013-03-20 08:55:00,
2013-03-20 05:05:00,21.8,20.6,29.66,NNE,24,0.0,0.0,95,0.00,,,0.00,Wunderground v.1.15,2013-03-20 09:05:00,
2013-03-20 05:15:00,21.9,20.7,29.66,NNE,24,0.0,0.0,95,0.00,,,0.00,Wunderground v.1.15,2013-03-20 09:15:00,
2013-03-20 05:20:00,22.0,20.8,29.66,NNE,24,0.0,0.0,95,0.00,,,0.00,Wunderground v.1.15,2013-03-20 09:20:00,
2013-03-20 05:25:00,22.0,21.0,29.66,NNE,24,0.0,0.0,96,0.00,,,0.00,Wunderground v.1.15,2013-03-20 09:25:00,
2013-03-20 05:35:00,22.1,20.9,29.66,NNE,24,0.0,0.0,95,0.00,,,0.00,Wunderground v.1.15,2013-03-20 09:35:00,
2013-03-20 05:40:00,22.2,21.0,29.67,NNE,24,0.0,0.0,95,0.00,,,0.00,Wunderground v.1.15,2013-03-20 09:40:00,
2013-03-20 05:45:00,22.2,21.0,29.67,NNE,24,0.0,0.0,95,0.00,,,0.00,Wunderground v.1.15,2013-03-20 09:45:00,
2013-03-20 05:55:00,22.3,21.1,29.67,NNE,24,0.0,0.0,95,0.00,,,0.00,Wunderground v.1.15,2013-03-20 09:55:00,
2013-03-20 06:00:00,22.3,21.3,29.67,NNE,24,0.0,0.0,96,0.00,,,0.00,Wunderground v.1.15,2013-03-20 10:00:00,
2013-03-20 06:05:00,22.3,21.1,29.67,NNE,24,0.0,0.0,95,0.00,,,0.00,Wunderground v.1.15,2013-03-20 10:05:00,
2013-03-20 06:15:00,22.3,21.3,29.67,NNE,24,0.0,0.0,96,0.00,,,0.00,Wunderground v.1.15,2013-03-20 10:15:00,
2013-03-20 06:25:00,22.2,21.0,29.67,NNE,24,0.0,0.0,95,0.00,,,0.00,Wunderground v.1.15,2013-03-20 10:25:00,
2013-03-20 06:30:00,22.3,21.1,29.67,NNE,24,0.0,0.0,95,0.00,,,0.00,Wunderground v.1.15,2013-03-20 10:30:00,
2013-03-20 06:40:00,22.4,21.2,29.67,West,266,0.0,2.0,95,0.00,,,0.00,Wunderground v.1.15,2013-03-20 10:40:00,
2013-03-20 06:45:00,22.6,21.6,29.67,West,262,0.0,2.0,96,0.00,,,0.00,Wunderground v.1.15,2013-03-20 10:45:00,
2013-03-20 06:50:00,22.7,21.5,29.67,WSW,256,0.0,0.0,95,0.00,,,0.00,Wunderground v.1.15,2013-03-20 10:50:00,
2013-03-20 06:55:00,22.7,21.5,29.67,WSW,253,0.0,0.0,95,0.00,,,0.00,Wunderground v.1.15,2013-03-20 10:55:00,
2013-03-20 07:05:00,22.8,21.6,29.67,WSW,252,0.0,0.0,95,0.00,,,0.00,Wunderground v.1.15,2013-03-20 11:05:00,
2013-03-20 07:10:00,22.8,21.6,29.67,WSW,252,0.0,0.0,95,0.00,,,0.00,Wunderground v.1.15,2013-03-20 11:10:00,
2013-03-20 07:15:00,22.9,21.7,29.67,WSW,252,0.0,0.0,95,0.00,,,0.00,Wunderground v.1.15,2013-03-20 11:15:00,
2013-03-20 07:25:00,22.9,21.7,29.68,WSW,252,0.0,0.0,95,0.00,,,0.00,Wunderground v.1.15,2013-03-20 11:25:00,
2013-03-20 07:35:00,23.0,21.8,29.68,WSW,249,0.0,0.0,95,0.00,,,0.00,Wunderground v.1.15,2013-03-20 11:35:00,
2013-03-20 07:40:00,23.0,21.8,29.68,NW,316,0.0,0.0,95,0.00,,,0.00,Wunderground v.1.15,2013-03-20 11:40:00,
2013-03-20 07:45:00,23.0,21.8,29.68,WSW,248,0.0,0.0,95,0.00,,,0.00,Wunderground v.1.15,2013-03-20 11:45:00,
2013-03-20 07:55:00,23.1,21.6,29.68,West,262,1.0,1.0,94,0.00,,,0.00,Wunderground v.1.15,2013-03-20 11:55:00,
2013-03-20 08:00:00,23.2,21.7,29.68,West,261,0.0,0.0,94,0.00,,,0.00,Wunderground v.1.15,2013-03-20 12:00:00,
2013-03-20 08:05:00,23.2,21.7,29.68,West,266,0.0,0.0,94,0.00,,,0.00,Wunderground v.1.15,2013-03-20 12:05:00,
2013-03-20 08:15:00,23.2,21.7,29.68,West,259,0.0,0.0,94,0.00,,,0.00,Wunderground v.1.15,2013-03-20 12:15:00,
2013-03-20 08:25:00,23.6,21.9,29.68,West,265,1.0,1.0,93,0.00,,,0.00,Wunderground v.1.15,2013-03-20 12:25:00,
2013-03-20 08:30:00,23.9,22.2,29.68,West,263,0.0,4.0,93,0.00,,,0.00,Wunderground v.1.15,2013-03-20 12:30:00,
2013-03-20 08:35:00,24.2,22.5,29.68,West,261,1.0,4.0,93,0.00,,,0.00,Wunderground v.1.15,2013-03-20 12:35:00,
2013-03-20 08:45:00,24.8,22.8,29.68,West,273,1.0,4.0,92,0.00,,,0.00,Wunderground v.1.15,2013-03-20 12:45:00,
2013-03-20 08:55:00,25.1,23.1,29.68,WSW,250,2.0,6.0,92,0.00,,,0.00,Wunderground v.1.15,2013-03-20 12:55:00,
2013-03-20 09:00:00,25.3,23.0,29.68,WSW,257,2.0,2.0,91,0.00,,,0.00,Wunderground v.1.15,2013-03-20 13:00:00,
2013-03-20 09:05:00,25.4,23.1,29.68,SW,232,3.0,5.0,91,0.00,,,0.00,Wunderground v.1.15,2013-03-20 13:05:00,
2013-03-20 09:15:00,26.0,23.7,29.68,WSW,250,2.0,3.0,91,0.00,,,0.00,Wunderground v.1.15,2013-03-20 13:15:00,
2013-03-20 09:25:00,26.3,23.8,29.68,WSW,258,3.0,3.0,90,0.00,,,0.01,Wunderground v.1.15,2013-03-20 13:25:00,
2013-03-20 09:35:00,26.2,23.4,29.68,West,280,4.0,9.0,89,0.00,,,0.01,Wunderground v.1.15,2013-03-20 13:35:00,
2013-03-20 09:45:00,26.6,23.8,29.67,West,266,3.0,3.0,89,0.00,,,0.01,Wunderground v.1.15,2013-03-20 13:45:00,
2013-03-20 09:55:00,26.5,23.2,29.68,WSW,252,6.0,9.0,87,0.00,,,0.02,Wunderground v.1.15,2013-03-20 13:55:00,
2013-03-20 10:00:00,26.8,23.7,29.68,WSW,252,5.0,5.0,88,0.00,,,0.02,Wunderground v.1.15,2013-03-20 14:00:00,
2013-03-20 10:10:00,27.3,24.2,29.67,WSW,257,2.0,2.0,88,0.00,,,0.02,Wunderground v.1.15,2013-03-20 14:10:00,
2013-03-20 10:15:00,26.9,23.3,29.67,SW,226,3.0,10.0,86,0.00,,,0.02,Wunderground v.1.15,2013-03-20 14:15:00,
2013-03-20 10:20:00,26.5,23.2,29.68,SW,215,3.0,7.0,87,0.00,,,0.03,Wunderground v.1.15,2013-03-20 14:20:00,
2013-03-20 10:26:00,26.4,23.1,29.68,SW,234,3.0,10.0,87,0.14,,,0.04,Wunderground v.1.15,2013-03-20 14:26:00,
2013-03-20 10:35:00,26.2,22.6,29.68,SW,215,2.0,6.0,86,0.04,,,0.04,Wunderground v.1.15,2013-03-20 14:35:00,
2013-03-20 10:45:00,25.9,22.6,29.68,SW,233,4.0,7.0,87,0.04,,,0.05,Wunderground v.1.15,2013-03-20 14:45:00,
2013-03-20 10:50:00,25.7,22.1,29.68,West,274,5.0,7.0,86,0.04,,,0.05,Wunderground v.1.15,2013-03-20 14:50:00,
2013-03-20 10:55:00,26.0,22.4,29.68,WSW,241,5.0,7.0,86,0.00,,,0.06,Wunderground v.1.15,2013-03-20 14:55:00,
2013-03-20 11:05:00,26.3,22.7,29.68,WSW,250,2.0,3.0,86,0.00,,,0.06,Wunderground v.1.15,2013-03-20 15:05:00,
2013-03-20 11:10:00,26.2,22.6,29.68,SW,220,2.0,2.0,86,0.00,,,0.06,Wunderground v.1.15,2013-03-20 15:10:00,
2013-03-20 11:15:00,26.3,22.7,29.69,WSW,246,2.0,5.0,86,0.00,,,0.06,Wunderground v.1.15,2013-03-20 15:15:00,
2013-03-20 11:25:00,26.4,22.2,29.69,WSW,253,3.0,5.0,84,0.00,,,0.06,Wunderground v.1.15,2013-03-20 15:25:00,
2013-03-20 11:30:00,26.3,22.7,29.68,WSW,238,3.0,3.0,86,0.00,,,0.06,Wunderground v.1.15,2013-03-20 15:30:00,
2013-03-20 11:35:00,26.1,22.5,29.69,WSW,256,2.0,3.0,86,0.00,,,0.07,Wunderground v.1.15,2013-03-20 15:35:00,
2013-03-20 11:45:00,26.1,22.5,29.69,WSW,255,1.0,2.0,86,0.07,,,0.08,Wunderground v.1.15,2013-03-20 15:45:00,
2013-03-20 11:55:00,26.2,22.6,29.69,SW,233,2.0,5.0,86,0.04,,,0.08,Wunderground v.1.15,2013-03-20 15:55:00,
2013-03-20 12:00:00,26.2,22.6,29.69,WSW,250,2.0,2.0,86,0.00,,,0.08,Wunderground v.1.15,2013-03-20 16:00:00,
2013-03-20 12:05:00,26.3,22.7,29.68,West,260,3.0,3.0,86,0.00,,,0.08,Wunderground v.1.15,2013-03-20 16:05:00,
2013-03-20 12:15:00,27.6,24.0,29.69,SW,227,2.0,5.0,86,0.00,,,0.08,Wunderground v.1.15,2013-03-20 16:15:00,
2013-03-20 12:20:00,27.6,23.4,29.68,SSW,206,4.0,5.0,84,0.00,,,0.08,Wunderground v.1.15,2013-03-20 16:20:00,
2013-03-20 12:26:00,26.9,22.7,29.69,SW,236,5.0,9.0,84,0.00,,,0.09,Wunderground v.1.15,2013-03-20 16:26:00,
2013-03-20 12:35:00,26.9,23.0,29.68,West,260,3.0,5.0,85,0.00,,,0.09,Wunderground v.1.15,2013-03-20 16:35:00,
2013-03-20 12:40:00,27.2,23.6,29.68,West,269,2.0,2.0,86,0.05,,,0.10,Wunderground v.1.15,2013-03-20 16:40:00,
2013-03-20 12:46:00,27.5,23.6,29.68,WSW,251,1.0,2.0,85,0.05,,,0.10,Wunderground v.1.15,2013-03-20 16:46:00,
2013-03-20 12:55:00,27.4,23.2,29.68,WSW,249,2.0,3.0,84,0.00,,,0.10,Wunderground v.1.15,2013-03-20 16:55:00,
2013-03-20 13:05:00,27.3,23.1,29.68,WSW,237,3.0,3.0,84,0.00,,,0.10,Wunderground v.1.15,2013-03-20 17:05:00,
2013-03-20 13:15:00,27.7,23.5,29.68,SW,232,1.0,2.0,84,0.00,,,0.11,Wunderground v.1.15,2013-03-20 17:15:00,
2013-03-20 13:25:00,28.7,24.5,29.68,WSW,248,1.0,4.0,84,0.06,,,0.12,Wunderground v.1.15,2013-03-20 17:25:00,
2013-03-20 13:35:00,28.9,24.7,29.68,ESE,107,4.0,4.0,84,0.06,,,0.12,Wunderground v.1.15,2013-03-20 17:35:00,
2013-03-20 13:40:00,28.8,24.6,29.67,West,268,4.0,9.0,84,0.04,,,0.12,Wunderground v.1.15,2013-03-20 17:40:00,
2013-03-20 13:45:00,29.0,24.8,29.67,WSW,247,5.0,10.0,84,0.04,,,0.13,Wunderground v.1.15,2013-03-20 17:45:00,
2013-03-20 13:55:00,29.2,24.7,29.67,WSW,245,7.0,7.0,83,0.08,,,0.14,Wunderground v.1.15,2013-03-20 17:55:00,
2013-03-20 14:05:00,29.0,24.5,29.67,West,276,3.0,5.0,83,0.04,,,0.14,Wunderground v.1.15,2013-03-20 18:05:00,
2013-03-20 14:10:00,28.7,23.9,29.67,West,265,4.0,4.0,82,0.00,,,0.14,Wunderground v.1.15,2013-03-20 18:10:00,
2013-03-20 14:15:00,28.7,24.2,29.67,SW,227,5.0,5.0,83,0.00,,,0.14,Wunderground v.1.15,2013-03-20 18:15:00,
2013-03-20 14:25:00,29.7,24.9,29.67,SW,225,3.0,12.0,82,0.00,,,0.15,Wunderground v.1.15,2013-03-20 18:25:00,
2013-03-20 14:30:00,30.4,25.3,29.66,West,263,5.0,5.0,81,0.00,,,0.15,Wunderground v.1.15,2013-03-20 18:30:00,
2013-03-20 14:35:00,31.1,25.0,29.66,West,260,5.0,5.0,78,0.08,,,0.16,Wunderground v.1.15,2013-03-20 18:35:00,
2013-03-20 14:45:00,31.6,24.9,29.67,WSW,249,4.0,4.0,76,0.05,,,0.16,Wunderground v.1.15,2013-03-20 18:45:00,
2013-03-20 14:51:00,31.2,24.5,29.66,West,259,5.0,5.0,76,0.00,,,0.16,Wunderground v.1.15,2013-03-20 18:51:00,
2013-03-20 14:56:00,30.8,23.5,29.66,West,260,6.0,10.0,74,0.00,,,0.17,Wunderground v.1.15,2013-03-20 18:56:00,
2013-03-20 15:05:00,30.9,24.5,29.66,WSW,244,4.0,5.0,77,0.00,,,0.17,Wunderground v.1.15,2013-03-20 19:05:00,
2013-03-20 15:10:00,31.1,24.1,29.66,West,276,2.0,2.0,75,0.04,,,0.18,Wunderground v.1.15,2013-03-20 19:10:00,
2013-03-20 15:15:00,30.8,23.8,29.66,SW,235,2.0,5.0,75,0.04,,,0.18,Wunderground v.1.15,2013-03-20 19:15:00,
2013-03-20 15:25:00,30.8,23.5,29.66,WSW,254,2.0,4.0,74,0.00,,,0.18,Wunderground v.1.15,2013-03-20 19:25:00,
2013-03-20 15:35:00,30.9,23.9,29.66,SW,235,3.0,6.0,75,0.00,,,0.18,Wunderground v.1.15,2013-03-20 19:35:00,
2013-03-20 15:40:00,31.0,24.3,29.66,WSW,245,4.0,4.0,76,0.00,,,0.18,Wunderground v.1.15,2013-03-20 19:40:00,
2013-03-20 15:50:00,31.2,24.2,29.66,WSW,250,4.0,4.0,75,0.00,,,0.18,Wunderground v.1.15,2013-03-20 19:50:00,
2013-03-20 15:55:00,31.2,24.2,29.66,WSW,244,5.0,5.0,75,0.00,,,0.18,Wunderground v.1.15,2013-03-20 19:55:00,
2013-03-20 16:01:00,30.8,23.5,29.66,SW,225,5.0,6.0,74,0.00,,,0.18,Wunderground v.1.15,2013-03-20 20:01:00,
2013-03-20 16:06:00,30.7,23.7,29.66,WSW,257,6.0,6.0,75,0.00,,,0.18,Wunderground v.1.15,2013-03-20 20:06:00,
2013-03-20 16:15:00,30.6,23.6,29.66,West,260,9.0,9.0,75,0.00,,,0.19,Wunderground v.1.15,2013-03-20 20:15:00,
2013-03-20 16:26:00,31.3,23.6,29.66,WSW,244,7.0,12.0,73,0.00,,,0.19,Wunderground v.1.15,2013-03-20 20:26:00,
2013-03-20 16:35:00,31.5,23.8,29.66,SW,227,6.0,9.0,73,0.00,,,0.20,Wunderground v.1.15,2013-03-20 20:35:00,
2013-03-20 16:45:00,30.9,23.3,29.67,West,267,5.0,6.0,73,0.00,,,0.20,Wunderground v.1.15,2013-03-20 20:45:00,
2013-03-20 16:50:00,30.9,22.9,29.67,SW,230,5.0,12.0,72,0.00,,,0.20,Wunderground v.1.15,2013-03-20 20:50:00,
2013-03-20 16:55:00,30.6,22.6,29.67,West,265,7.0,12.0,72,0.00,,,0.20,Wunderground v.1.15,2013-03-20 20:55:00,
2013-03-20 17:05:00,30.8,23.2,29.67,WSW,258,6.0,8.0,73,0.00,,,0.20,Wunderground v.1.15,2013-03-20 21:05:00,
2013-03-20 17:15:00,30.8,23.2,29.68,West,272,5.0,6.0,73,0.00,,,0.20,Wunderground v.1.15,2013-03-20 21:15:00,
2013-03-20 17:20:00,30.7,23.1,29.68,WNW,290,4.0,5.0,73,0.00,,,0.20,Wunderground v.1.15,2013-03-20 21:20:00,
2013-03-20 17:25:00,31.4,23.4,29.68,SW,232,4.0,5.0,72,0.00,,,0.20,Wunderground v.1.15,2013-03-20 21:25:00,
2013-03-20 17:35:00,31.7,22.7,29.68,SW,230,7.0,7.0,69,0.00,,,0.20,Wunderground v.1.15,2013-03-20 21:35:00,
2013-03-20 17:40:00,31.5,22.5,29.68,SW,226,8.0,11.0,69,0.00,,,0.20,Wunderground v.1.15,2013-03-20 21:40:00,
2013-03-20 17:45:00,31.3,22.3,29.68,West,263,8.0,11.0,69,0.00,,,0.20,Wunderground v.1.15,2013-03-20 21:45:00,
2013-03-20 17:55:00,31.0,22.4,29.68,WSW,252,5.0,6.0,70,0.00,,,0.20,Wunderground v.1.15,2013-03-20 21:55:00,
2013-03-20 18:01:00,31.0,22.4,29.68,West,260,5.0,5.0,70,0.00,,,0.20,Wunderground v.1.15,2013-03-20 22:01:00,
2013-03-20 18:06:00,31.2,22.2,29.68,WSW,250,5.0,5.0,69,0.00,,,0.20,Wunderground v.1.15,2013-03-20 22:06:00,
2013-03-20 18:15:00,31.4,22.1,29.69,WSW,258,5.0,5.0,68,0.00,,,0.20,Wunderground v.1.15,2013-03-20 22:15:00,
2013-03-20 18:25:00,30.7,22.1,29.69,West,262,4.0,8.0,70,0.00,,,0.21,Wunderground v.1.15,2013-03-20 22:25:00,
2013-03-20 18:31:00,30.2,21.6,29.69,WSW,251,5.0,5.0,70,0.00,,,0.21,Wunderground v.1.15,2013-03-20 22:31:00,
2013-03-20 18:40:00,29.7,21.4,29.70,West,259,4.0,4.0,71,0.00,,,0.21,Wunderground v.1.15,2013-03-20 22:40:00,
2013-03-20 18:45:00,29.6,21.7,29.70,WSW,250,5.0,5.0,72,0.00,,,0.21,Wunderground v.1.15,2013-03-20 22:45:00,
2013-03-20 18:55:00,29.4,20.8,29.70,West,262,5.0,10.0,70,0.00,,,0.21,Wunderground v.1.15,2013-03-20 22:55:00,
2013-03-20 19:05:00,29.0,20.8,29.70,WSW,249,3.0,4.0,71,0.00,,,0.21,Wunderground v.1.15,2013-03-20 23:05:00,
2013-03-20 19:15:00,29.0,20.8,29.71,West,265,3.0,3.0,71,0.00,,,0.21,Wunderground v.1.15,2013-03-20 23:15:00,
2013-03-20 19:25:00,28.7,20.5,29.71,WSW,248,3.0,3.0,71,0.00,,,0.21,Wunderground v.1.15,2013-03-20 23:25:00,
2013-03-20 19:30:00,28.7,20.1,29.71,WSW,256,3.0,3.0,70,0.00,,,0.21,Wunderground v.1.15,2013-03-20 23:30:00,
2013-03-20 19:35:00,28.6,20.4,29.71,West,270,3.0,3.0,71,0.00,,,0.21,Wunderground v.1.15,2013-03-20 23:35:00,
2013-03-20 19:45:00,28.3,20.1,29.72,West,269,3.0,3.0,71,0.00,,,0.21,Wunderground v.1.15,2013-03-20 23:45:00,
2013-03-20 19:55:00,28.5,20.0,29.72,WSW,245,4.0,4.0,70,0.00,,,0.21,Wunderground v.1.15,2013-03-20 23:55:00,
2013-03-20 20:00:00,28.5,20.3,29.72,West,259,4.0,4.0,71,0.00,,,0.21,Wunderground v.1.15,2013-03-21 00:00:00,
2013-03-20 20:05:00,28.4,19.9,29.72,WSW,244,3.0,4.0,70,0.00,,,0.21,Wunderground v.1.15,2013-03-21 00:05:00,
2013-03-20 20:15:00,28.1,19.6,29.72,West,259,3.0,3.0,70,0.00,,,0.21,Wunderground v.1.15,2013-03-21 00:15:00,
2013-03-20 20:25:00,27.6,19.4,29.73,West,259,3.0,6.0,71,0.00,,,0.21,Wunderground v.1.15,2013-03-21 00:25:00,
2013-03-20 20:35:00,27.4,19.2,29.73,West,265,2.0,3.0,71,0.00,,,0.21,Wunderground v.1.15,2013-03-21 00:35:00,
2013-03-20 20:45:00,27.5,19.3,29.73,West,263,2.0,4.0,71,0.00,,,0.21,Wunderground v.1.15,2013-03-21 00:45:00,
2013-03-20 20:50:00,27.4,19.2,29.73,West,259,1.0,1.0,71,0.00,,,0.21,Wunderground v.1.15,2013-03-21 00:50:00,
2013-03-20 20:55:00,27.3,19.5,29.73,West,259,1.0,1.0,72,0.00,,,0.21,Wunderground v.1.15,2013-03-21 00:55:00,
2013-03-20 21:05:00,27.0,19.2,29.74,WSW,256,1.0,4.0,72,0.00,,,0.21,Wunderground v.1.15,2013-03-21 01:05:00,
2013-03-20 21:10:00,26.9,18.7,29.74,WSW,256,1.0,1.0,71,0.00,,,0.21,Wunderground v.1.15,2013-03-21 01:10:00,
2013-03-20 21:15:00,26.7,18.9,29.74,WSW,256,0.0,1.0,72,0.00,,,0.21,Wunderground v.1.15,2013-03-21 01:15:00,
2013-03-20 21:25:00,26.7,18.9,29.74,WSW,256,0.0,3.0,72,0.00,,,0.21,Wunderground v.1.15,2013-03-21 01:25:00,
2013-03-20 21:35:00,26.5,18.7,29.74,WSW,256,0.0,0.0,72,0.00,,,0.21,Wunderground v.1.15,2013-03-21 01:35:00,
2013-03-20 21:40:00,26.4,18.6,29.74,WSW,256,0.0,0.0,72,0.00,,,0.21,Wunderground v.1.15,2013-03-21 01:40:00,
2013-03-20 21:45:00,26.4,18.6,29.74,WSW,256,0.0,0.0,72,0.00,,,0.21,Wunderground v.1.15,2013-03-21 01:45:00,
2013-03-20 21:55:00,26.2,18.4,29.74,WSW,256,0.0,0.0,72,0.00,,,0.21,Wunderground v.1.15,2013-03-21 01:55:00,
2013-03-20 22:00:00,26.1,18.6,29.74,WSW,256,0.0,0.0,73,0.00,,,0.21,Wunderground v.1.15,2013-03-21 02:00:00,
2013-03-20 22:05:00,25.8,18.3,29.75,WSW,256,0.0,0.0,73,0.00,,,0.21,Wunderground v.1.15,2013-03-21 02:05:00,
2013-03-20 22:15:00,25.5,18.4,29.75,WSW,256,0.0,0.0,74,0.00,,,0.21,Wunderground v.1.15,2013-03-21 02:15:00,
2013-03-20 22:20:00,25.4,18.3,29.75,WSW,256,0.0,0.0,74,0.00,,,0.21,Wunderground v.1.15,2013-03-21 02:20:00,
2013-03-20 22:25:00,25.5,18.0,29.75,WSW,256,0.0,0.0,73,0.00,,,0.21,Wunderground v.1.15,2013-03-21 02:25:00,
2013-03-20 22:35:00,25.1,18.0,29.75,WSW,256,0.0,0.0,74,0.00,,,0.21,Wunderground v.1.15,2013-03-21 02:35:00,
2013-03-20 22:45:00,25.2,18.1,29.74,WSW,256,0.0,0.0,74,0.00,,,0.21,Wunderground v.1.15,2013-03-21 02:45:00,
2013-03-20 22:50:00,25.1,18.0,29.75,WSW,256,0.0,0.0,74,0.00,,,0.21,Wunderground v.1.15,2013-03-21 02:50:00,
2013-03-20 23:00:00,25.1,17.7,29.75,WSW,256,0.0,0.0,73,0.00,,,0.21,Wunderground v.1.15,2013-03-21 03:00:00,
2013-03-20 23:05:00,25.1,17.7,29.75,WSW,256,0.0,0.0,73,0.00,,,0.21,Wunderground v.1.15,2013-03-21 03:05:00,
2013-03-20 23:10:00,25.0,17.6,29.75,WSW,256,0.0,0.0,73,0.00,,,0.21,Wunderground v.1.15,2013-03-21 03:10:00,
2013-03-20 23:15:00,24.9,17.5,29.75,WSW,256,0.0,0.0,73,0.00,,,0.21,Wunderground v.1.15,2013-03-21 03:15:00,
2013-03-20 23:25:00,24.7,17.3,29.75,WSW,256,0.0,0.0,73,0.00,,,0.21,Wunderground v.1.15,2013-03-21 03:25:00,
2013-03-20 23:35:00,24.2,17.1,29.74,WSW,256,0.0,0.0,74,0.00,,,0.21,Wunderground v.1.15,2013-03-21 03:35:00,
2013-03-20 23:45:00,24.4,17.0,29.75,WSW,256,0.0,0.0,73,0.00,,,0.21,Wunderground v.1.15,2013-03-21 03:45:00,
2013-03-20 23:55:00,24.0,16.9,29.75,WSW,256,0.0,0.0,74,0.00,,,0.21,Wunderground v.1.15,2013-03-21 03:55:00,